Content
SEND FEEDBACK

Daily
Averages
Monthly
Summary
United States of America

BOILING SPRING LAKES, NORTH CAROLINA


Home > North America > United States > North Carolina
Elevation: 20 feet     Latitude: 34 00N     Longitude: 078 01W

WEATHER
 
SELECT A DAY
Number of Records: 147,734;   Date Range: 8/21/01 - 12/16/14
 
SHARE

PRINT THIS DATA

[ ← Previous Day ]
WEATHER ALMANAC - AUGUST 25, 2014
[ Next Day → ]
[ °C ]   °F
Weather ElementAverageHighLow
Temperature72.7 °F83.1 °F (11:55 am)63.7 °F (6:55 am)
Dewpoint65.1 °F72 °F (12:35 am)59.4 °F (9:35 pm)
Humidity77.7 %95 % (12:35 am)62 % (10:55 am)
Barometer30.01 in30.05 in (8:35 am)29.99 in (12:35 am)
Wind Speed9.1 mph16.1 mph (12:55 pm)
Wind Gust25.3 mph (12:55 pm)
Weather ElementAverage
Visibility9.7 mi
Wind DirectionNE (48.3 °)

Weather ElementTotal
Precipitation0.09 in
Cooling Degree Days8.4 (Base 65)
Growing Degree Days23.4 (Base 50)
Averaged from 71 records on August 25, 2014
WEATHER CONDITIONS BREAKOUT
WIND DIRECTION BREAKOUT
WEATHER BY HOUR - AUGUST 25, 2014
[ °C ]   °F
Local TimeTemperatureDewpointHumidityBarometerVisibilityWind DirectionWind SpeedGust SpeedPrecipitationEventsConditions
12:15 AM69.8 °F60.3 °F72 %30.03 in10.0 miNNE (20°)8.1 mphClear
12:35 AM69.3 °F60.3 °F73 %30.03 in10.0 miNNE (20°)8.1 mphClear
12:55 AM68.9 °F60.3 °F74 %30.03 in10.0 miNNE (20°)10.4 mphClear
1:15 AM68.9 °F60.4 °F74 %30.03 in10.0 miNNE (20°)9.2 mphClear
1:35 AM68.9 °F60.3 °F74 %30.03 in10.0 miNNE (20°)9.2 mphMostly Cloudy
1:55 AM69.3 °F60.3 °F73 %30.02 in10.0 miNorth (10°)9.2 mph16.1 mphOvercast
2:15 AM68.9 °F60.1 °F73 %30.02 in10.0 miNorth (10°)10.4 mphOvercast
2:35 AM68.9 °F60.3 °F74 %30.02 in10.0 miNorth (10°)8.1 mphMostly Cloudy
2:55 AM67.5 °F59.5 °F76 %30.01 in10.0 miNorth (10°)9.2 mphScattered Clouds
3:15 AM67.1 °F59.4 °F76 %30.01 in10.0 miNorth (10°)9.2 mphClear
3:35 AM66.6 °F59.9 °F79 %30.01 in10.0 miNorth (360°)8.1 mphClear
3:55 AM65.8 °F59.9 °F81 %30.00 in10.0 miNorth (10°)8.1 mphClear
4:15 AM65.7 °F59.9 °F82 %30.00 in10.0 miNorth (10°)9.2 mphClear
4:35 AM65.3 °F60.1 °F83 %30.00 in10.0 miNorth (10°)8.1 mphClear
4:55 AM65.3 °F60.8 °F85 %29.99 in10.0 miNorth (360°)9.2 mphClear
5:15 AM64.9 °F60.4 °F85 %30.00 in10.0 miNorth (10°)8.1 mphClear
5:35 AM64.4 °F60.1 °F86 %30.00 in10.0 miNNE (20°)6.9 mphClear
5:55 AM64.4 °F60.1 °F86 %30.00 in10.0 miNNE (20°)8.1 mphClear
6:15 AM63.9 °F60.1 °F87 %30.00 in10.0 miNorth (10°)8.1 mphClear
6:35 AM63.9 °F60.3 °F88 %30.00 in10.0 miNorth (10°)8.1 mphClear
6:55 AM63.7 °F60.3 °F89 %30.00 in10.0 miNorth (10°)8.1 mphClear
7:15 AM63.9 °F60.4 °F89 %30.00 in10.0 miNorth (10°)6.9 mphClear
7:35 AM65.3 °F61.0 °F86 %30.00 in10.0 miNorth (10°)9.2 mphClear
7:55 AM66.2 °F61.3 °F84 %30.00 in10.0 miNNE (20°)10.4 mphClear
8:15 AM67.8 °F61.9 °F81 %30.01 in10.0 miNNE (20°)9.2 mph17.3 mphClear
8:35 AM68.9 °F62.6 °F80 %30.01 in10.0 miNNE (20°)11.5 mphClear
8:55 AM70.9 °F62.8 °F75 %30.01 in10.0 miNNE (20°)12.7 mph17.3 mphClear
9:15 AM72.5 °F63.0 °F72 %30.01 in10.0 miNNE (20°)11.5 mph16.1 mphClear
9:35 AM73.6 °F62.8 °F69 %30.01 in10.0 miNNE (30°)10.4 mph20.7 mphClear
9:55 AM75.2 °F63.1 °F66 %30.01 in10.0 miNNE (20°)13.8 mph19.6 mphClear
10:35 AM77.4 °F63.7 °F63 %30.01 in10.0 miNE (40°)10.4 mph16.1 mphClear
10:55 AM79.2 °F65.3 °F62 %30.01 in10.0 miNE (40°)9.2 mph18.4 mphClear
11:15 AM79.3 °F65.3 °F62 %30.01 in10.0 miNNE (30°)15.0 mph23.0 mphClear
11:35 AM80.1 °F66.2 °F62 %30.02 in10.0 miNE (50°)10.4 mph21.9 mphScattered Clouds
11:55 AM78.8 °F66.6 °F66 %30.02 in10.0 miNE (40°)12.7 mph18.4 mphMostly Cloudy
12:15 PM79.9 °F67.1 °F65 %30.02 in10.0 miNNE (30°)15.0 mph18.4 mphOvercast
12:35 PM79.3 °F67.1 °F66 %30.02 in10.0 miENE (60°)10.4 mph23.0 mphOvercast
12:55 PM81.1 °F67.8 °F64 %30.02 in10.0 miNNE (30°)16.1 mph23.0 mphMostly Cloudy
1:15 PM81.5 °F68.5 °F65 %30.02 in10.0 miNE (50°)13.8 mph21.9 mphMostly Cloudy
1:35 PM81.9 °F68.2 °F63 %30.02 in10.0 miNE (50°)13.8 mph24.2 mphMostly Cloudy
1:55 PM82.0 °F68.7 °F64 %30.01 in10.0 miNNE (30°)13.8 mph23.0 mphScattered Clouds
2:15 PM83.1 °F68.9 °F62 %30.01 in10.0 miNE (40°)11.5 mph25.3 mphMostly Cloudy
2:35 PM81.9 °F68.5 °F64 %30.01 in10.0 miNE (50°)12.7 mph19.6 mphMostly Cloudy
2:55 PM82.2 °F68.5 °F63 %30.01 in10.0 miNE (50°)10.4 mph19.6 mphMostly Cloudy
3:15 PM79.0 °F68.9 °F71 %30.01 in10.0 miNE (40°)13.8 mph19.6 mphOvercast
3:35 PM79.2 °F71.8 °F78 %30.00 in10.0 miNE (50°)8.1 mphMostly Cloudy
3:55 PM80.2 °F70.5 °F72 %30.00 in10.0 miNE (40°)8.1 mphMostly Cloudy
4:15 PM79.3 °F68.7 °F70 %30.00 in10.0 miNE (50°)10.4 mph20.7 mphMostly Cloudy
4:35 PM80.8 °F69.1 °F67 %30.00 in10.0 miNE (40°)12.7 mph24.2 mphMostly Cloudy
4:55 PM76.1 °F70.7 °F83 %30.00 in10.0 miNorth (10°)6.9 mphRainLight Rain
5:15 PM76.1 °F70.2 °F82 %30.00 in10.0 miNorth (360°)8.1 mphOvercast
5:35 PM76.8 °F70.9 °F82 %30.00 in7.0 miNE (40°)6.9 mphOvercast
5:55 PM74.3 °F71.6 °F91 %30.01 in3.0 miNE (50°)4.6 mph0.02 inRainHeavy Rain
6:15 PM73.4 °F71.6 °F94 %30.01 in7.0 miNE (40°)4.6 mph0.01 inRainLight Rain
6:35 PM73.4 °F71.6 °F94 %30.01 in5.0 miNorth (10°)3.5 mph0.03 inRainRain
6:55 PM73.6 °F72.0 °F95 %30.02 in10.0 miNorth (10°)3.5 mph0.03 inOvercast
7:15 PM74.3 °F72.0 °F92 %30.02 in10.0 miNorth (10°)4.6 mphOvercast
7:35 PM74.3 °F71.1 °F90 %30.02 in10.0 miNorth (10°)8.1 mphOvercast
7:55 PM73.4 °F70.5 °F91 %30.01 in10.0 miNorth (360°)6.9 mphOvercast
8:15 PM72.7 °F70.0 °F91 %30.02 in10.0 miNorth (360°)6.9 mphMostly Cloudy
8:35 PM72.7 °F70.0 °F91 %30.02 in10.0 miNorth (10°)6.9 mphMostly Cloudy
8:55 PM72.7 °F69.6 °F90 %30.02 in10.0 miNorth (10°)5.8 mphOvercast
9:15 PM72.9 °F68.4 °F86 %30.03 in10.0 miNNE (20°)5.8 mphOvercast
9:35 PM72.7 °F67.3 °F83 %30.03 in10.0 miNNE (30°)9.2 mphMostly Cloudy
9:55 PM72.5 °F66.6 °F82 %30.03 in10.0 miNNE (30°)8.1 mphScattered Clouds
10:15 PM72.5 °F66.2 °F81 %30.04 in10.0 miNNE (30°)8.1 mphClear
10:35 PM72.5 °F66.2 °F81 %30.04 in10.0 miNNE (30°)6.9 mphClear
10:55 PM71.8 °F65.5 °F80 %30.04 in10.0 miNNE (20°)6.9 mphClear
11:15 PM71.1 °F64.4 °F79 %30.04 in10.0 miNorth (10°)6.9 mphClear
11:35 PM70.7 °F63.9 °F79 %30.05 in10.0 miNorth (10°)5.8 mphClear
11:55 PM70.2 °F63.3 °F79 %30.05 in10.0 miNorth (10°)9.2 mphClear
Hourly data recorded from KSUT, located miles away from Boiling Spring Lakes, North Carolina







STORIES FROM OUR PARTNERS